Regional Weather Roundup
Issued by NWS

Home | Current Version | Previous Version | Graphics & Text | Print | Product List | Glossary On
Versions: 1 2 3 4 5 6 7 8 9 10 11 12 13 14 15 16 17 18 19 20 21 22 23 24 25 26
000
ASUS45 KTFX 171810
RWRMT
MONTANA REGIONAL WEATHER ROUNDUP
NATIONAL WEATHER SERVICE GREAT FALLS MT
1100 AM MST SAT FEB 17 2018

NOTE: "FAIR" INDICATES FEW OR NO CLOUDS BELOW 12000 FEET WITH NO
SIGNIFICANT WEATHER AND/OR OBSTRUCTIONS TO VISIBILITY.

MTZ001>007-043-171900-
WEST OF THE DIVIDE

CITY           SKY/WX    TMP DP  RH WIND       PRES   REMARKS
KALISPELL      SNOW      22  22 100 N3        29.77F VSB 1/4
MISSOULA       LGT SNOW  29  27  92 SE6       29.78F VSB 1   WCI  23
BUTTE          CLOUDY    32  16  51 VRB6      29.78F WCI  26
MULLAN PASS    SNOW      24  23  96 VRB7      29.62F VSB 1/4 WCI  16
ANACONDA         N/A     34  19  55 MISG      29.76F
DEER LODGE       N/A     34  23  64 MISG      29.76F
EUREKA           N/A     27  23  86 MISG      29.77F
HAMILTON         N/A     37  25  60 S15G24    29.78F WCI  28
PLAINS           N/A     29  21  71 CALM      29.80F
RONAN            N/A     28  27  93 CALM      29.77F FOG
$$

MTZ008-052>055-171900-
SOUTHWEST MONTANA

CITY           SKY/WX    TMP DP  RH WIND       PRES   REMARKS
BOZEMAN        PTSUNNY   31  21  66 E6        29.81F WCI  25
DILLON         CLOUDY    32  11  41 SW15      29.81F WCI  22
ENNIS          MOSUNNY   34  14  44 S24G31    29.86F WCI  21
W YELLOWSTONE  CLOUDY    19  19 100 SW18G29   29.91F FOG     WCI   4
THREE FORKS      N/A     35  24  64 CALM      29.81F
TWIN BRIDGES     N/A     38  15  39 S14       29.82F WCI  30
$$

MTZ009-010-012-014-046-048-049-054-171900-
EAST SLOPES AND CENTRAL MONTANA

CITY           SKY/WX    TMP DP  RH WIND       PRES   REMARKS
CUT BANK       CLOUDY    15  13  91 SE13      29.78F WCI   1
GREAT FALLS    CLOUDY    17  11  77 E6        29.80F WCI   9
MALMSTROM AFB  CLOUDY    18  15  86 E6        29.82F WCI  10
HELENA         CLOUDY    22  17  81 N3        29.80F
AUGUSTA        CLOUDY    14  13  99 CALM      29.75F
BOWMANS CRNR   PTSUNNY   17  16  96 S6        29.73F WCI   9
CONRAD           N/A     16  13  88 E6        29.85F WCI   8
FAIRFIELD      PTSUNNY   16  13  89 SE7       29.78F WCI   6
POWER          CLOUDY    14  12  92 E9        29.79F WCI   2
RAYNESFORD     CLOUDY    17  11  80 SE21      29.80F WCI   0
ULM            PTSUNNY   15  14  96 CALM      29.79F
WHITE SULPHUR    N/A     27  19  74 S12G18    29.75F WCI  16
$$

MTZ011-013-016-021-045-047-050-051-171900-
NORTH CENTRAL MONTANA

CITY           SKY/WX    TMP DP  RH WIND       PRES   REMARKS
HAVRE          FAIR      17  12  80 E7        29.95F WCI   8
LEWISTOWN      CLOUDY    17  12  80 E9        29.83F WCI   6
N BAR RANCH    FAIR      16  10  79 E7        29.86F WCI   6
CHINOOK          N/A     12   7  79 N8        29.98F WCI   1
GEYSER         LGT SNOW  16  13  87 SE9       29.81F FOG     WCI   4
STANFORD       FLURRIES  15  13  88 S7        29.80F WCI   6
WINIFRED       PTSUNNY   16  12  84 E5        29.85F
$$

MTZ017>020-022>027-061-062-171900-
NORTHEAST MONTANA

CITY           SKY/WX    TMP DP  RH WIND       PRES   REMARKS
GLASGOW        PTSUNNY   11   5  77 W3        30.01S
GLENDIVE       FAIR      17   9  70 W12       30.03R WCI   4
JORDAN           N/A     11   6  81 CALM      30.00F
MALTA          CLOUDY    10   5  79 CALM      30.00S
SIDNEY         FAIR      16   8  71 W15       30.04S WCI   1
WOLF POINT     CLOUDY    12   5  73 SW8       30.03F WCI   0
PLENTYWOOD       N/A     10   3  72 W13       29.97R WCI  -5
SCOBEY           N/A     10  -1  61 W13       29.95R WCI  -5
$$

MTZ028>42-056>058-171900-
SOUTHCENTRAL AND SOUTHEAST MONTANA

CITY           SKY/WX    TMP DP  RH WIND       PRES   REMARKS
BAKER          FAIR      15  10  80 W12       30.00R WCI   2
BILLINGS       FLURRIES  21  18  88 NE7       29.90F WCI  12
LIVINGSTON     CLOUDY    36  20  52 SW33G48   29.79F WCI  22
MILES CITY     CLOUDY    18  16  92 SW6       30.02F WCI  10
BIG TIMBER     MOSUNNY   27  19  74 E6        29.84F WCI  20
EKALAKA          N/A     15   9  77 SW6       29.95R WCI   6
FORSYTH          N/A     25  18  74 SE5       29.99F
HARLOWTON      FLURRIES  17  14  89 SE8       29.85F WCI   6
LAUREL           N/A     21  16  79 NE15      29.90F WCI   8
$$

REGIONAL REPORTS...DAKOTAS

CITY           SKY/WX    TMP DP  RH WIND       PRES   REMARKS
WILLISTON      FAIR      16   7  67 W15G22    30.00S WCI   1
MINOT          FAIR      21  11  65 W18       29.93S WCI   6
DICKINSON      FAIR      17   8  67 W22       29.96S WCI   0
BEACH          FAIR      14   9  79 W15       30.02S WCI  -1
CROSBY         FAIR      10   3  72 W18       29.97R WCI  -8
TIOGA          FAIR      12   9  85 W22G28    29.95S WCI  -7
WATFORD CITY   FAIR      16   7  67 NW17      29.99F WCI   0
BISMARCK       PTSUNNY   24  12  60 W16       30.02R WCI  11
GRAND FORKS    FAIR      21   8  57 W18       29.91R WCI   6
FARGO          FAIR      23  15  71 NW20      29.95R WCI   8
BUFFALO SD       N/A     20  11  68 W20       29.92R WCI   4
RAPID CITY     FAIR      30  23  75 N13       30.00F WCI  20
$$

REGIONAL REPORTS...WYOMING/IDAHO/WASHINGTON

CITY           SKY/WX    TMP DP  RH WIND       PRES   REMARKS
GILLETTE       PTSUNNY   28  19  69 S14       29.93  WCI  17
SHERIDAN       FAIR      29  21  72 CALM      29.90F
BUFFALO WY     FAIR      27  21  78 SE10      29.89F WCI  17
CODY           FAIR      39  13  34 W14G22    29.85F WCI  31
YELLOWSTONE LA   N/A     20  16  84 CALM      29.92F
IDAHO FALLS    CLOUDY    36  26  67 SW20G36   30.04F WCI  25
SALMON         CLOUDY    42  16  34 S21G28    29.86F
BOISE          FAIR      41  29  62 SE17G24   30.04F
SPOKANE        LGT SNOW  33  33 100 S8        29.69F VSB 3/4 WCI  26
$$

REGIONAL REPORTS...ALBERTA

CITY           SKY/WX    TMP DP  RH WIND       PRES   REMARKS
CALGARY        LGT SNOW   9   3  78 NE6       29.86  WCI  -1
CARDSTON         N/A     16  10  79 W8          N/A  WCI   5
EDMONTON       SUNNY      9  -6  52 W7        29.94F WCI  -3
FORT MCMURRAY  MOSUNNY    5  -6  61 NW22G29   29.94  HAZE    WCI -16
HIGH LEVEL     PTSUNNY   10   1  67 N12G20    30.04S WCI  -4
LETHBRIDGE     FLURRIES  12   5  73 E15G21    29.87F WCI  -4
LLOYDMINSTER   PTSUNNY    5  -2  72 W13       29.87S WCI -12
MEDICINE HAT   CLOUDY    10   5  79 NE5       29.97F
MILK RIVER       N/A     14   9  79 E14         N/A  WCI  -1
ONEFOUR          N/A      9   5  85 SE5         N/A
PEACE RIVER    PTSUNNY    9  -4  56 N13G24    30.02F WCI  -7
PINCHER CREEK  LGT SNOW  10   7  85 E9        29.82F VSB 3/4 WCI  -2
WATERTON GATE    N/A     10   7  85 NE8         N/A  WCI  -1
$$

REGIONAL REPORTS...SASKATCHEWAN

CITY           SKY/WX    TMP DP  RH WIND       PRES   REMARKS
CORONACH         N/A     10   3  72 NW15        N/A  WCI  -6
CYPRESS HILLS    N/A      7   0  72 N6          N/A  WCI  -3
ESTEVAN        MOSUNNY   10   3  72 W20       29.94R WCI  -8
MOOSE JAW        N/A     10   1  67 W18         N/A  WCI  -8
PRINCE ALBERT  PTSUNNY   10   0  61 NW15G24   29.86S WCI  -6
REGINA         PTSUNNY    9   0  66 NW20G25   29.92F WCI -11
ROCKGLEN         N/A      7   0  72 W13G20      N/A  WCI  -9
SASKATOON      PTSUNNY    9   0  66 W14       29.91F WCI  -8
SWIFT CURRENT  SUNNY      7  -2  66 W14       29.90F WCI -10
VAL MARIE        N/A      5  -2  72 NW5         N/A
$$




USA.gov is the U.S. government's official web portal to all federal, state and local government web resources and services.